sat.trackr.live / text

‹ back to catalog

DONGPO 09

NORAD 54685 · 2022-167D

PAYLOAD ACTIVE UNKNOWN

§ Identity

Operator
Country
PRC
Launch date
2022-12-09
Launch site
SEAL
Launch vehicle
Mass (kg)
RCS (m²)

External: N2YO · Heavens-Above · Gunter

§ Orbital elements

Epoch: 2026-09-20T23:07:44.851584Z

Period
93.62 min
Inclination
97.6967°
Eccentricity
0.0003186
Mean motion
15.38166909 rev/d
Perigee alt
449.4 km
Apogee alt
453.7 km
Semi-major
6,829.7 km
B*
2.0450e-4
RAAN
79.4420°
Arg perigee
123.4171°
Mean anomaly
236.7378°
Rev number
21,016

§ Raw data

DONGPO 091 54685U 22167D   26263.96371356  .00007597  00000+0  20450-3 0  99962 54685  97.6967  79.4420 0003186 123.4171 236.7378 15.38166909210161

JSON: /api/v1/satellites/54685 · /tle

For live sub-satellite position, see the globe view (requires WebGL).

§ Visibility from observer

Set your observer location to see the next 7 days of passes ≥ 10°. The values pass through the URL so the page stays shareable.

No JS? Fill the form by hand. The geolocation button needs JavaScript.

§ Radio — SatNOGS DB

ModeDescriptionDownlinkUplink
FM Jillin Mysterious Pip 1.616 GHz

1 transmitter · refreshed weekly from db.satnogs.org